User: anonymous   Login
Location: Elstree
(51.6403°N, 0.2969°W)
Time: 16:20:43
(UTC+00:00)
Language:

CZ-4B R/B - Orbit

View from above orbital plane
View from above orbital plane
View from above satellite
View from above satellite

Ground track
Ground track

The orbit data is extracted from the following two-line orbital elements,

1 29093U 06015B   21125.76726422  .00003562  00000-0  65511-4 0  9990
2 29093  97.6349 315.7000 0048713 232.0187 127.6659 15.48661437836328
Epoch (UTC): 05 May 2021 18:24:51
Eccentricity: 0.0048713
inclination: 97.6349°
perigee height: 387 km
apogee height: 454 km
right ascension of ascending node: 315.7000°
argument of perigee: 232.0187°
revolutions per day: 15.48661437
mean anomaly at epoch: 127.6659°
orbit number at epoch: 83632

The dashed part of the orbit path shows where the satellite is in the earth's shadow,  

DLR